Time,TemperatureF,DewpointF,PressureIn,WindDirection,WindDirectionDegrees,WindSpeedMPH,WindSpeedGustMPH,Humidity,HourlyPrecipIn,Conditions,Clouds,dailyrainin,SoftwareType,DateUTC
2013-03-19 00:06:00,29.8,-99.9,28.44,East,90,10.0,-999.0,-999,-99.99,,,-99.99,,2013-03-19 00:06:00,
2013-03-19 00:12:00,29.8,-99.9,28.44,SE,135,14.0,-999.0,-999,-99.99,,,-99.99,,2013-03-19 00:12:00,
2013-03-19 00:18:00,29.9,-99.9,28.44,ESE,112,11.0,-999.0,-999,-99.99,,,-99.99,,2013-03-19 00:18:00,
2013-03-19 00:25:00,30.0,-99.9,28.44,ENE,67,13.0,-999.0,-999,-99.99,,,-99.99,,2013-03-19 00:25:00,
2013-03-19 00:33:00,30.1,-99.9,28.44,ENE,67,10.0,-999.0,-999,-99.99,,,-99.99,,2013-03-19 00:33:00,
2013-03-19 00:39:00,30.1,-99.9,28.44,ENE,67,13.0,-999.0,-999,-99.99,,,-99.99,,2013-03-19 00:39:00,
2013-03-19 00:48:00,30.1,-99.9,28.44,SE,135,10.0,-999.0,-999,-99.99,,,-99.99,,2013-03-19 00:48:00,
2013-03-19 00:55:00,30.1,-99.9,28.44,East,90,-999.0,-999.0,-999,-99.99,,,-99.99,,2013-03-19 00:55:00,
2013-03-19 01:03:00,30.2,-99.9,28.44,ENE,67,17.0,-999.0,-999,-99.99,,,-99.99,,2013-03-19 01:03:00,
2013-03-19 01:09:00,30.2,-99.9,28.44,ENE,67,-999.0,-999.0,-999,-99.99,,,-99.99,,2013-03-19 01:09:00,
2013-03-19 01:15:00,30.2,-99.9,28.44,ESE,112,12.0,-999.0,-999,-99.99,,,-99.99,,2013-03-19 01:15:00,
2013-03-19 01:23:00,30.3,-99.9,28.45,East,90,12.0,-999.0,-999,-99.99,,,-99.99,,2013-03-19 01:23:00,
2013-03-19 01:30:00,30.3,-99.9,28.45,ENE,67,10.0,-999.0,-999,-99.99,,,-99.99,,2013-03-19 01:30:00,
2013-03-19 01:35:00,30.3,-99.9,28.45,ESE,112,-999.0,-999.0,-999,-99.99,,,-99.99,,2013-03-19 01:35:00,
2013-03-19 01:41:00,30.2,-99.9,28.45,SE,135,16.0,-999.0,-999,-99.99,,,-99.99,,2013-03-19 01:41:00,
2013-03-19 01:47:00,30.2,-99.9,28.45,SE,135,10.0,-999.0,-999,-99.99,,,-99.99,,2013-03-19 01:47:00,
2013-03-19 01:53:00,30.2,-99.9,28.46,SE,135,12.0,-999.0,-999,-99.99,,,-99.99,,2013-03-19 01:53:00,
2013-03-19 02:00:00,30.2,-99.9,28.46,SE,135,12.0,-999.0,-999,-99.99,,,-99.99,,2013-03-19 02:00:00,
2013-03-19 02:08:00,30.2,-99.9,28.46,ESE,112,13.0,-999.0,-999,-99.99,,,-99.99,,2013-03-19 02:08:00,
2013-03-19 02:14:00,30.2,-99.9,28.46,ESE,112,5.0,-999.0,-999,-99.99,,,-99.99,,2013-03-19 02:14:00,
2013-03-19 02:21:00,30.2,-99.9,28.46,East,90,14.0,-999.0,-999,-99.99,,,-99.99,,2013-03-19 02:21:00,
2013-03-19 02:27:00,30.1,-99.9,28.46,SE,135,10.0,-999.0,-999,-99.99,,,-99.99,,2013-03-19 02:27:00,
2013-03-19 02:34:00,30.2,-99.9,28.46,ESE,112,-999.0,-999.0,-999,-99.99,,,-99.99,,2013-03-19 02:34:00,
2013-03-19 02:40:00,30.2,-99.9,28.46,ESE,112,9.0,-999.0,-999,-99.99,,,-99.99,,2013-03-19 02:40:00,
2013-03-19 02:47:00,30.3,-99.9,28.46,ESE,112,-999.0,-999.0,-999,-99.99,,,-99.99,,2013-03-19 02:47:00,
2013-03-19 02:53:00,30.2,-99.9,28.45,ESE,112,7.0,-999.0,-999,-99.99,,,-99.99,,2013-03-19 02:53:00,
2013-03-19 02:59:00,30.3,-99.9,28.46,East,90,13.0,-999.0,-999,-99.99,,,-99.99,,2013-03-19 02:59:00,
2013-03-19 03:05:00,30.3,-99.9,28.46,East,90,11.0,-999.0,-999,-99.99,,,-99.99,,2013-03-19 03:05:00,
2013-03-19 03:12:00,30.2,-99.9,28.46,East,90,14.0,-999.0,-999,-99.99,,,-99.99,,2013-03-19 03:12:00,
2013-03-19 03:18:00,30.2,-99.9,28.46,ESE,112,12.0,-999.0,-999,-99.99,,,-99.99,,2013-03-19 03:18:00,
2013-03-19 03:24:00,30.3,-99.9,28.46,ESE,112,10.0,-999.0,-999,-99.99,,,-99.99,,2013-03-19 03:24:00,
2013-03-19 03:30:00,30.3,-99.9,28.46,ESE,112,15.0,-999.0,-999,-99.99,,,-99.99,,2013-03-19 03:30:00,
2013-03-19 03:37:00,30.2,-99.9,28.46,SSE,157,8.0,-999.0,-999,-99.99,,,-99.99,,2013-03-19 03:37:00,
2013-03-19 03:43:00,30.3,-99.9,28.46,East,90,17.0,-999.0,-999,-99.99,,,-99.99,,2013-03-19 03:43:00,
2013-03-19 03:49:00,30.2,-99.9,28.46,ESE,112,12.0,-999.0,-999,-99.99,,,-99.99,,2013-03-19 03:49:00,
2013-03-19 03:58:00,30.2,-99.9,28.46,ESE,112,11.0,-999.0,-999,-99.99,,,-99.99,,2013-03-19 03:58:00,
2013-03-19 04:00:00,30.2,-99.9,28.46,SE,135,14.0,-999.0,-999,-99.99,,,-99.99,,2013-03-19 04:00:00,
2013-03-19 04:02:00,30.2,-99.9,28.46,ESE,112,15.0,-999.0,-999,-99.99,,,-99.99,,2013-03-19 04:02:00,
2013-03-19 04:06:00,30.2,-99.9,28.46,ESE,112,15.0,-999.0,-999,-99.99,,,-99.99,,2013-03-19 04:06:00,
2013-03-19 04:13:00,30.2,-99.9,28.46,ESE,112,8.0,-999.0,-999,-99.99,,,-99.99,,2013-03-19 04:13:00,
2013-03-19 04:19:00,30.2,-99.9,28.46,East,90,14.0,-999.0,-999,-99.99,,,-99.99,,2013-03-19 04:19:00,
2013-03-19 04:21:00,30.2,-99.9,28.46,ESE,112,12.0,-999.0,-999,-99.99,,,-99.99,,2013-03-19 04:21:00,
2013-03-19 04:27:00,30.2,-99.9,28.46,SE,135,11.0,-999.0,-999,-99.99,,,-99.99,,2013-03-19 04:27:00,
2013-03-19 04:34:00,30.1,-99.9,28.46,ESE,112,8.0,-999.0,-999,-99.99,,,-99.99,,2013-03-19 04:34:00,
2013-03-19 04:40:00,30.0,-99.9,28.46,ENE,67,11.0,-999.0,-999,-99.99,,,-99.99,,2013-03-19 04:40:00,
2013-03-19 04:46:00,30.0,-99.9,28.46,SE,135,12.0,-999.0,-999,-99.99,,,-99.99,,2013-03-19 04:46:00,
2013-03-19 04:53:00,30.0,-99.9,28.46,East,90,10.0,-999.0,-999,-99.99,,,-99.99,,2013-03-19 04:53:00,
2013-03-19 04:59:00,29.9,-99.9,28.46,ESE,112,7.0,-999.0,-999,-99.99,,,-99.99,,2013-03-19 04:59:00,
2013-03-19 05:05:00,29.9,-99.9,28.46,ESE,112,8.0,-999.0,-999,-99.99,,,-99.99,,2013-03-19 05:05:00,
2013-03-19 05:12:00,30.0,-99.9,28.46,ENE,67,-999.0,-999.0,-999,-99.99,,,-99.99,,2013-03-19 05:12:00,
2013-03-19 05:18:00,30.0,-99.9,28.46,ESE,112,14.0,-999.0,-999,-99.99,,,-99.99,,2013-03-19 05:18:00,
2013-03-19 05:24:00,30.0,-99.9,28.46,ENE,67,10.0,-999.0,-999,-99.99,,,-99.99,,2013-03-19 05:24:00,
2013-03-19 05:30:00,30.0,-99.9,28.46,East,90,8.0,-999.0,-999,-99.99,,,-99.99,,2013-03-19 05:30:00,
2013-03-19 05:37:00,30.0,-99.9,28.46,East,90,9.0,-999.0,-999,-99.99,,,-99.99,,2013-03-19 05:37:00,
2013-03-19 05:43:00,30.1,-99.9,28.47,ESE,112,13.0,-999.0,-999,-99.99,,,-99.99,,2013-03-19 05:43:00,
2013-03-19 05:49:00,30.1,-99.9,28.46,ESE,112,8.0,-999.0,-999,-99.99,,,-99.99,,2013-03-19 05:49:00,
2013-03-19 05:55:00,30.2,-99.9,28.47,SE,135,11.0,-999.0,-999,-99.99,,,-99.99,,2013-03-19 05:55:00,
2013-03-19 06:04:00,30.4,-99.9,28.47,East,90,10.0,-999.0,-999,-99.99,,,-99.99,,2013-03-19 06:04:00,
2013-03-19 06:10:00,30.3,-99.9,28.47,SE,135,15.0,-999.0,-999,-99.99,,,-99.99,,2013-03-19 06:10:00,
2013-03-19 06:17:00,30.4,-99.9,28.47,ESE,112,-999.0,-999.0,-999,-99.99,,,-99.99,,2013-03-19 06:17:00,
2013-03-19 06:23:00,30.4,-99.9,28.47,ESE,112,11.0,-999.0,-999,-99.99,,,-99.99,,2013-03-19 06:23:00,
2013-03-19 06:29:00,30.3,-99.9,28.46,East,90,12.0,-999.0,-999,-99.99,,,-99.99,,2013-03-19 06:29:00,
2013-03-19 06:35:00,30.3,-99.9,28.47,ESE,112,8.0,-999.0,-999,-99.99,,,-99.99,,2013-03-19 06:35:00,
2013-03-19 06:42:00,30.3,-99.9,28.47,ESE,112,14.0,-999.0,-999,-99.99,,,-99.99,,2013-03-19 06:42:00,
2013-03-19 06:48:00,30.2,-99.9,28.47,East,90,13.0,-999.0,-999,-99.99,,,-99.99,,2013-03-19 06:48:00,
2013-03-19 06:54:00,30.2,-99.9,28.47,ESE,112,15.0,-999.0,-999,-99.99,,,-99.99,,2013-03-19 06:54:00,
2013-03-19 07:01:00,30.2,-99.9,28.46,SSE,157,12.0,-999.0,-999,-99.99,,,-99.99,,2013-03-19 07:01:00,
2013-03-19 07:07:00,30.3,-99.9,28.46,ESE,112,9.0,-999.0,-999,-99.99,,,-99.99,,2013-03-19 07:07:00,
2013-03-19 07:13:00,30.2,-99.9,28.46,ESE,112,10.0,-999.0,-999,-99.99,,,-99.99,,2013-03-19 07:13:00,
2013-03-19 07:19:00,30.2,-99.9,28.46,ESE,112,13.0,-999.0,-999,-99.99,,,-99.99,,2013-03-19 07:19:00,
2013-03-19 07:27:00,30.4,-99.9,28.46,ESE,112,-999.0,-999.0,-999,-99.99,,,-99.99,,2013-03-19 07:27:00,
2013-03-19 07:33:00,30.3,-99.9,28.47,SE,135,14.0,-999.0,-999,-99.99,,,-99.99,,2013-03-19 07:33:00,
2013-03-19 07:39:00,30.3,-99.9,28.46,ESE,112,10.0,-999.0,-999,-99.99,,,-99.99,,2013-03-19 07:39:00,
2013-03-19 07:46:00,30.5,-99.9,28.46,ESE,112,15.0,-999.0,-999,-99.99,,,-99.99,,2013-03-19 07:46:00,
2013-03-19 07:52:00,30.6,-99.9,28.46,SE,135,12.0,-999.0,-999,-99.99,,,-99.99,,2013-03-19 07:52:00,
2013-03-19 07:58:00,31.0,-99.9,28.46,ENE,67,8.0,-999.0,-999,-99.99,,,-99.99,,2013-03-19 07:58:00,
2013-03-19 08:05:00,31.2,-99.9,28.46,SW,225,9.0,-999.0,-999,-99.99,,,-99.99,,2013-03-19 08:05:00,
2013-03-19 08:11:00,31.2,-99.9,28.46,NE,45,14.0,-999.0,-999,-99.99,,,-99.99,,2013-03-19 08:11:00,
2013-03-19 08:19:00,31.3,-99.9,28.46,SE,135,9.0,-999.0,-999,-99.99,,,-99.99,,2013-03-19 08:19:00,
2013-03-19 08:25:00,31.7,-99.9,28.46,ENE,67,11.0,-999.0,-999,-99.99,,,-99.99,,2013-03-19 08:25:00,
2013-03-19 08:32:00,31.9,-99.9,28.46,ENE,67,12.0,-999.0,-999,-99.99,,,-99.99,,2013-03-19 08:32:00,
2013-03-19 08:38:00,32.0,-99.9,28.46,East,90,11.0,-999.0,-999,-99.99,,,-99.99,,2013-03-19 08:38:00,
2013-03-19 08:44:00,32.1,-99.9,28.46,SSE,157,12.0,-999.0,-999,-99.99,,,-99.99,,2013-03-19 08:44:00,
2013-03-19 08:51:00,32.1,-99.9,28.47,ENE,67,18.0,-999.0,-999,-99.99,,,-99.99,,2013-03-19 08:51:00,
2013-03-19 08:57:00,32.0,-99.9,28.47,SE,135,17.0,-999.0,-999,-99.99,,,-99.99,,2013-03-19 08:57:00,
2013-03-19 09:03:00,32.0,-99.9,28.47,East,90,16.0,-999.0,-999,-99.99,,,-99.99,,2013-03-19 09:03:00,
2013-03-19 09:09:00,32.0,-99.9,28.47,South,180,15.0,-999.0,-999,-99.99,,,-99.99,,2013-03-19 09:09:00,
2013-03-19 09:16:00,32.1,-99.9,28.47,SE,135,12.0,-999.0,-999,-99.99,,,-99.99,,2013-03-19 09:16:00,
2013-03-19 09:22:00,32.2,-99.9,28.46,North,0,13.0,-999.0,-999,-99.99,,,-99.99,,2013-03-19 09:22:00,
2013-03-19 09:28:00,32.0,-99.9,28.47,SE,135,18.0,-999.0,-999,-99.99,,,-99.99,,2013-03-19 09:28:00,
2013-03-19 09:34:00,32.0,-99.9,28.47,ESE,112,13.0,-999.0,-999,-99.99,,,-99.99,,2013-03-19 09:34:00,
2013-03-19 09:41:00,32.3,-99.9,28.46,West,270,17.0,-999.0,-999,-99.99,,,-99.99,,2013-03-19 09:41:00,
2013-03-19 09:50:00,32.6,-99.9,28.47,ESE,112,11.0,-999.0,-999,-99.99,,,-99.99,,2013-03-19 09:50:00,
2013-03-19 10:01:00,33.0,-99.9,28.47,SSW,202,12.0,-999.0,-999,-99.99,,,-99.99,,2013-03-19 10:01:00,
2013-03-19 10:08:00,32.8,-99.9,28.47,ENE,67,14.0,-999.0,-999,-99.99,,,-99.99,,2013-03-19 10:08:00,
2013-03-19 10:14:00,32.6,-99.9,28.47,East,90,12.0,-999.0,-999,-99.99,,,-99.99,,2013-03-19 10:14:00,
2013-03-19 10:23:00,32.5,-99.9,28.47,East,90,14.0,-999.0,-999,-99.99,,,-99.99,,2013-03-19 10:23:00,
2013-03-19 10:29:00,32.7,-99.9,28.47,SSW,202,14.0,-999.0,-999,-99.99,,,-99.99,,2013-03-19 10:29:00,
2013-03-19 10:35:00,32.7,-99.9,28.47,SSE,157,20.0,-999.0,-999,-99.99,,,-99.99,,2013-03-19 10:35:00,
2013-03-19 10:41:00,32.9,-99.9,28.47,ENE,67,16.0,-999.0,-999,-99.99,,,-99.99,,2013-03-19 10:41:00,
2013-03-19 10:48:00,32.7,-99.9,28.47,East,90,13.0,-999.0,-999,-99.99,,,-99.99,,2013-03-19 10:48:00,
2013-03-19 10:53:00,32.7,-99.9,28.47,WSW,247,9.0,-999.0,-999,-99.99,,,-99.99,,2013-03-19 10:53:00,
2013-03-19 11:00:00,32.6,-99.9,28.47,ESE,112,10.0,-999.0,-999,-99.99,,,-99.99,,2013-03-19 11:00:00,
2013-03-19 11:05:00,32.6,-99.9,28.48,NW,315,11.0,-999.0,-999,-99.99,,,-99.99,,2013-03-19 11:05:00,
2013-03-19 11:12:00,32.5,-99.9,28.48,ENE,67,12.0,-999.0,-999,-99.99,,,-99.99,,2013-03-19 11:12:00,
2013-03-19 11:18:00,32.7,-99.9,28.48,East,90,10.0,-999.0,-999,-99.99,,,-99.99,,2013-03-19 11:18:00,
2013-03-19 11:23:00,32.9,-99.9,28.48,ENE,67,19.0,-999.0,-999,-99.99,,,-99.99,,2013-03-19 11:23:00,
2013-03-19 11:30:00,32.9,-99.9,28.48,ESE,112,14.0,-999.0,-999,-99.99,,,-99.99,,2013-03-19 11:30:00,
2013-03-19 11:35:00,33.1,-99.9,28.48,ESE,112,6.0,-999.0,-999,-99.99,,,-99.99,,2013-03-19 11:35:00,
2013-03-19 11:41:00,33.2,-99.9,28.48,ESE,112,17.0,-999.0,-999,-99.99,,,-99.99,,2013-03-19 11:41:00,
2013-03-19 11:47:00,33.1,-99.9,28.49,East,90,10.0,-999.0,-999,-99.99,,,-99.99,,2013-03-19 11:47:00,
2013-03-19 11:54:00,33.3,-99.9,28.49,ESE,112,10.0,-999.0,-999,-99.99,,,-99.99,,2013-03-19 11:54:00,
2013-03-19 12:00:00,33.5,-99.9,28.49,WSW,247,11.0,-999.0,-999,-99.99,,,-99.99,,2013-03-19 12:00:00,
2013-03-19 12:06:00,33.5,-99.9,28.49,ESE,112,9.0,-999.0,-999,-99.99,,,-99.99,,2013-03-19 12:06:00,
2013-03-19 12:12:00,33.6,-99.9,28.49,SE,135,9.0,-999.0,-999,-99.99,,,-99.99,,2013-03-19 12:12:00,
2013-03-19 12:19:00,34.2,-99.9,28.49,ENE,67,9.0,-999.0,-999,-99.99,,,-99.99,,2013-03-19 12:19:00,
2013-03-19 12:24:00,34.1,-99.9,28.50,SSE,157,-999.0,-999.0,-999,-99.99,,,-99.99,,2013-03-19 12:24:00,
2013-03-19 12:30:00,33.9,-99.9,28.50,ESE,112,13.0,-999.0,-999,-99.99,,,-99.99,,2013-03-19 12:30:00,
2013-03-19 12:37:00,34.7,-99.9,28.50,SW,225,-999.0,-999.0,-999,-99.99,,,-99.99,,2013-03-19 12:37:00,
2013-03-19 12:43:00,35.4,-99.9,28.50,ESE,112,7.0,-999.0,-999,-99.99,,,-99.99,,2013-03-19 12:43:00,
2013-03-19 12:49:00,34.7,-99.9,28.50,NW,315,8.0,-999.0,-999,-99.99,,,-99.99,,2013-03-19 12:49:00,
2013-03-19 12:55:00,34.2,-99.9,28.50,East,90,10.0,-999.0,-999,-99.99,,,-99.99,,2013-03-19 12:55:00,
2013-03-19 13:02:00,34.2,-99.9,28.50,WNW,292,8.0,-999.0,-999,-99.99,,,-99.99,,2013-03-19 13:02:00,
2013-03-19 13:07:00,34.1,-99.9,28.50,SW,225,10.0,-999.0,-999,-99.99,,,-99.99,,2013-03-19 13:07:00,
2013-03-19 13:13:00,34.1,-99.9,28.50,ESE,112,11.0,-999.0,-999,-99.99,,,-99.99,,2013-03-19 13:13:00,
2013-03-19 13:19:00,34.2,-99.9,28.50,South,180,8.0,-999.0,-999,-99.99,,,-99.99,,2013-03-19 13:19:00,
2013-03-19 13:28:00,34.0,-99.9,28.50,ENE,67,9.0,-999.0,-999,-99.99,,,-99.99,,2013-03-19 13:28:00,
2013-03-19 13:34:00,33.7,-99.9,28.50,WNW,292,13.0,-999.0,-999,-99.99,,,-99.99,,2013-03-19 13:34:00,
2013-03-19 13:41:00,33.7,-99.9,28.50,ESE,112,10.0,-999.0,-999,-99.99,,,-99.99,,2013-03-19 13:41:00,
2013-03-19 13:47:00,34.1,-99.9,28.50,SE,135,6.0,-999.0,-999,-99.99,,,-99.99,,2013-03-19 13:47:00,
2013-03-19 13:53:00,34.6,-99.9,28.50,ESE,112,11.0,-999.0,-999,-99.99,,,-99.99,,2013-03-19 13:53:00,
2013-03-19 13:59:00,34.5,-99.9,28.50,SSE,157,8.0,-999.0,-999,-99.99,,,-99.99,,2013-03-19 13:59:00,
2013-03-19 14:05:00,34.1,-99.9,28.50,ESE,112,11.0,-999.0,-999,-99.99,,,-99.99,,2013-03-19 14:05:00,
2013-03-19 14:12:00,33.9,-99.9,28.50,South,180,9.0,-999.0,-999,-99.99,,,-99.99,,2013-03-19 14:12:00,
2013-03-19 14:19:00,33.3,-99.9,28.50,East,90,15.0,-999.0,-999,-99.99,,,-99.99,,2013-03-19 14:19:00,
2013-03-19 14:25:00,32.9,-99.9,28.50,East,90,11.0,-999.0,-999,-99.99,,,-99.99,,2013-03-19 14:25:00,
2013-03-19 14:31:00,32.9,-99.9,28.50,ENE,67,11.0,-999.0,-999,-99.99,,,-99.99,,2013-03-19 14:31:00,
2013-03-19 14:38:00,32.8,-99.9,28.50,ESE,112,11.0,-999.0,-999,-99.99,,,-99.99,,2013-03-19 14:38:00,
2013-03-19 14:44:00,32.7,-99.9,28.50,East,90,11.0,-999.0,-999,-99.99,,,-99.99,,2013-03-19 14:44:00,
2013-03-19 14:50:00,32.9,-99.9,28.50,SE,135,8.0,-999.0,-999,-99.99,,,-99.99,,2013-03-19 14:50:00,
2013-03-19 14:56:00,32.8,-99.9,28.50,South,180,11.0,-999.0,-999,-99.99,,,-99.99,,2013-03-19 14:56:00,
2013-03-19 15:03:00,32.7,-99.9,28.50,ESE,112,12.0,-999.0,-999,-99.99,,,-99.99,,2013-03-19 15:03:00,
2013-03-19 15:09:00,32.6,-99.9,28.50,ESE,112,10.0,-999.0,-999,-99.99,,,-99.99,,2013-03-19 15:09:00,
2013-03-19 15:15:00,32.6,-99.9,28.50,SE,135,10.0,-999.0,-999,-99.99,,,-99.99,,2013-03-19 15:15:00,
2013-03-19 15:21:00,32.5,-99.9,28.50,ESE,112,11.0,-999.0,-999,-99.99,,,-99.99,,2013-03-19 15:21:00,
2013-03-19 15:28:00,32.3,-99.9,28.50,SE,135,13.0,-999.0,-999,-99.99,,,-99.99,,2013-03-19 15:28:00,
2013-03-19 15:34:00,32.2,-99.9,28.50,North,0,12.0,-999.0,-999,-99.99,,,-99.99,,2013-03-19 15:34:00,
2013-03-19 15:40:00,32.2,-99.9,28.50,SE,135,12.0,-999.0,-999,-99.99,,,-99.99,,2013-03-19 15:40:00,
2013-03-19 15:46:00,32.1,-99.9,28.50,NNE,22,9.0,-999.0,-999,-99.99,,,-99.99,,2013-03-19 15:46:00,
2013-03-19 15:53:00,32.0,-99.9,28.50,SE,135,8.0,-999.0,-999,-99.99,,,-99.99,,2013-03-19 15:53:00,
2013-03-19 15:59:00,32.0,-99.9,28.50,ESE,112,9.0,-999.0,-999,-99.99,,,-99.99,,2013-03-19 15:59:00,
2013-03-19 16:05:00,32.1,-99.9,28.50,NE,45,7.0,-999.0,-999,-99.99,,,-99.99,,2013-03-19 16:05:00,
2013-03-19 16:10:00,32.3,-99.9,28.50,East,90,10.0,-999.0,-999,-99.99,,,-99.99,,2013-03-19 16:10:00,
2013-03-19 16:17:00,32.3,-99.9,28.50,South,180,12.0,-999.0,-999,-99.99,,,-99.99,,2013-03-19 16:17:00,
2013-03-19 16:23:00,32.3,-99.9,28.50,East,90,6.0,-999.0,-999,-99.99,,,-99.99,,2013-03-19 16:23:00,
2013-03-19 16:28:00,32.3,-99.9,28.50,ESE,112,7.0,-999.0,-999,-99.99,,,-99.99,,2013-03-19 16:28:00,
2013-03-19 16:35:00,32.2,-99.9,28.50,ENE,67,7.0,-999.0,-999,-99.99,,,-99.99,,2013-03-19 16:35:00,
2013-03-19 16:41:00,32.1,-99.9,28.50,SSW,202,7.0,-999.0,-999,-99.99,,,-99.99,,2013-03-19 16:41:00,
2013-03-19 16:47:00,32.0,-99.9,28.50,ESE,112,10.0,-999.0,-999,-99.99,,,-99.99,,2013-03-19 16:47:00,